This is the latest recevied weather packets stored in our database for station/object N1YZ. If no packets are shown the sender has not sent any weather packets the latest 10 day(s).
| Time | Temp. | Humidity | Pressure | Rain* | Wind** | Luminosity | Snow |
|---|---|---|---|---|---|---|---|
| 1777948658 | 18.33° C | 62% | 1033.4 hPa | 0 mm | - | 0 W/m² | - |
| 1777948355 | 18.33° C | 62% | 1033.4 hPa | 0 mm | - | 0 W/m² | - |
| 1777948053 | 18.33° C | 64% | 1033.1 hPa | 0 mm | - | 0 W/m² | - |
| 1777947750 | 18.89° C | 63% | 1033.3 hPa | 0 mm | - | 0 W/m² | - |
| 1777947446 | 18.89° C | 60% | 1033.1 hPa | 0 mm | - | 0 W/m² | - |
| 1777947143 | 18.89° C | 58% | 1033.1 hPa | 0 mm | - | 0 W/m² | - |
| 1777946839 | 18.89° C | 61% | 1033.4 hPa | 0 mm | - | 0 W/m² | - |
| 1777946534 | 18.89° C | 58% | 1033.3 hPa | 0 mm | - | 0 W/m² | - |
| 1777946232 | 18.89° C | 58% | 1033.1 hPa | 0 mm | - | 0 W/m² | - |
| 1777945929 | 19.44° C | 59% | 1033.1 hPa | 0 mm | - | 0 W/m² | - |
| 1777945626 | 19.44° C | 56% | 1033 hPa | 0 mm | - | 0 W/m² | - |
| 1777945323 | 19.44° C | 58% | 1033 hPa | 0 mm | - | 0 W/m² | - |
| 1777945019 | 19.44° C | 61% | 1032.8 hPa | 0 mm | - | 0 W/m² | - |
| 1777944711 | 19.44° C | 60% | 1032.8 hPa | 0 mm | - | 0 W/m² | - |
| 1777944410 | 20° C | 57% | 1032.9 hPa | 0 mm | - | 0 W/m² | - |
| 1777944107 | 20° C | 55% | 1032.8 hPa | 0 mm | - | 0 W/m² | - |
| 1777943802 | 20° C | 55% | 1032.7 hPa | 0 mm | - | 0 W/m² | - |
| 1777943500 | 20° C | 54% | 1033 hPa | 0 mm | - | 0 W/m² | - |
| 1777943200 | 20° C | 54% | 1032.7 hPa | 0 mm | - | 0 W/m² | - |
| 1777942897 | 20° C | 54% | 1032.7 hPa | 0 mm | - | 0 W/m² | - |
| 1777942592 | 20.56° C | 55% | 1032.7 hPa | 0 mm | - | 0 W/m² | - |
| 1777942290 | 20.56° C | 52% | 1032.6 hPa | 0 mm | - | 0 W/m² | - |
| 1777941987 | 21.11° C | 53% | 1032.6 hPa | 0 mm | - | 0 W/m² | - |
| 1777941684 | 21.11° C | 50% | 1032.7 hPa | 0 mm | - | 0 W/m² | - |
| 1777941381 | 21.67° C | 49% | 1032.7 hPa | 0 mm | - | 1 W/m² | - |
* Rain latest hour (hover to see other rain measurements)
** Current wind speed in m/s (hover to see current wind gust speed)